GW0010 Weather Reports


time (UTC)temp
C
wind
direction
speed
KPH
gust
KPH
rain 1hr
cm
rain 24hr
cm
rain mn
cm
humidity
%
barometer
mb
20260504020359 22 263 17.7 22.5 0.00 0.00 0.00 15 1025.3
20260504015357 22 237 14.5 24.1 0.00 0.00 0.00 15 1025.5
20260504014355 23 246 19.3 22.5 0.00 0.00 0.00 15 1024.8
20260504013350 23 256 19.3 25.7 0.00 0.00 0.00 15 1024.7
20260504012350 23 270 9.7 17.7 0.00 0.00 0.00 14 1024.8
20260504011350 23 237 14.5 20.9 0.00 0.00 0.00 14 1024.6
20260504010348 23 249 12.9 20.9 0.00 0.00 0.00 14 1024.5
20260504005347 24 290 19.3 24.1 0.00 0.00 0.00 14 1024.3
20260504004342 25 268 9.7 16.1 0.00 0.00 0.00 13 1024.6
20260504003341 25 300 8.0 14.5 0.00 0.00 0.00 13 1024.3
20260504002340 25 238 11.3 17.7 0.00 0.00 0.00 13 1024.2
20260504001340 25 241 11.3 17.7 0.00 0.00 0.00 12 1024.2
20260504000340 25 278 22.5 25.7 0.00 0.00 0.00 12 1023.9
20260503235335 25 261 11.3 14.5 0.00 0.00 0.00 11 1024.1
20260503234330 25 255 19.3 22.5 0.00 0.00 0.00 10 1023.9
20260503233329 25 246 14.5 22.5 0.00 0.00 0.00 11 1024.2
20260503232329 25 237 17.7 24.1 0.00 0.00 0.00 12 1024.3
20260503231329 26 235 12.9 14.5 0.00 0.00 0.00 10 1023.8
20260503230328 26 243 20.9 27.4 0.00 0.00 0.00 11 1023.8
20260503225327 25 255 11.3 20.9 0.00 0.00 0.00 11 1024.3
20260503224327 25 258 11.3 20.9 0.00 0.00 0.00 11 1024.1
20260503223322 26 268 19.3 24.1 0.00 0.00 0.00 12 1024.6
20260503222322 26 239 9.7 12.9 0.00 0.00 0.00 12 1024.7
20260503221319 25 259 19.3 27.4 0.00 0.00 0.00 11 1024.5
20260503220317 25 253 9.7 14.5 0.00 0.00 0.00 12 1024.5
20260503215317 25 269 16.1 29.0 0.00 0.00 0.00 12 1024.5
20260503214312 25 238 11.3 12.9 0.00 0.00 0.00 10 1024.6
20260503213307 25 216 9.7 22.5 0.00 0.00 0.00 14 1024.7
20260503212301 25 255 12.9 17.7 0.00 0.00 0.00 13 1025.3
20260503211301 25 308 11.3 22.5 0.00 0.00 0.00 14 1025.1
20260503210259 25 249 9.7 22.5 0.00 0.00 0.00 13 1025.6
20260503205256 25 257 14.5 27.4 0.00 0.00 0.00 13 1025.3
20260503204256 25 247 16.1 20.9 0.00 0.00 0.00 13 1025.5
20260503203251 25 230 3.2 9.7 0.00 0.00 0.00 13 1025.9
20260503202246 23 264 8.0 16.1 0.00 0.00 0.00 14 1026.1
20260503201246 25 259 14.5 22.5 0.00 0.00 0.00 14 1026.2
20260503200245 23 221 6.4 9.7 0.00 0.00 0.00 16 1026.4
20260503195245 23 266 11.3 17.7 0.00 0.00 0.00 16 1026.5
20260503194244 23 277 16.1 17.7 0.00 0.00 0.00 16 1026.5
20260503193243 23 226 9.7 24.1 0.00 0.00 0.00 16 1026.8
20260503192239 23 215 9.7 14.5 0.00 0.00 0.00 16 1026.9
20260503191234 23 246 14.5 20.9 0.00 0.00 0.00 15 1026.9
20260503190233 23 212 3.2 16.1 0.00 0.00 0.00 15 1027.0
20260503185232 23 243 9.7 14.5 0.00 0.00 0.00 15 1027.5
20260503184229 23 226 4.8 11.3 0.00 0.00 0.00 16 1027.5
20260503183229 22 249 3.2 14.5 0.00 0.00 0.00 17 1027.6
20260503182225 22 278 8.0 16.1 0.00 0.00 0.00 17 1027.6
20260503181224 22 250 9.7 14.5 0.00 0.00 0.00 19 1028.0
20260503180219 22 272 12.9 17.7 0.00 0.00 0.00 17 1027.8
20260503175219 21 221 1.6 3.2 0.00 0.00 0.00 18 1028.0
20260503174218 22 281 11.3 12.9 0.00 0.00 0.00 18 1028.3
20260503173215 21 238 8.0 11.3 0.00 0.00 0.00 21 1028.3
20260503172215 21 283 12.9 16.1 0.00 0.00 0.00 20 1028.3
20260503171214 20 218 4.8 12.9 0.00 0.00 0.00 22 1028.3
20260503170214 21 240 8.0 14.5 0.00 0.00 0.00 19 1028.7
20260503160159 20 239 9.7 14.5 0.00 0.00 0.00 24 1028.5
20260503150142 17 214 3.2 8.0 0.00 0.00 0.00 35 1027.8
20260503140135 16 99 4.8 4.8 0.00 0.00 0.00 65 1027.5
20260503131128 12 95 6.4 9.7 0.00 0.00 0.00 84 1026.6
20260503130123 11 88 4.8 8.0 0.00 0.00 0.00 86 1026.6
20260503120111 10 103 8.0 11.3 0.00 0.00 0.00 89 1025.6
20260503081024 13 173 3.2 4.8 0.00 0.00 0.00 67 1026.1
20260503072014 16 220 0.0 1.6 0.00 0.00 0.00 39 1026.4
20260503071014 16 217 1.6 8.0 0.00 0.00 0.00 39 1026.4
20260503054956 18 255 11.3 14.5 0.00 0.00 0.00 34 1026.5
20260503053956 17 230 6.4 9.7 0.00 0.00 0.00 34 1026.5
20260503052956 18 255 8.0 12.9 0.00 0.00 0.00 33 1026.2
20260503051955 18 251 12.9 16.1 0.00 0.00 0.00 33 1026.6
20260503050955 18 233 8.0 12.9 0.00 0.00 0.00 33 1026.4
20260503045954 18 245 8.0 12.9 0.00 0.00 0.00 33 1026.4
20260503044954 18 231 4.8 9.7 0.00 0.00 0.00 33 1026.4
20260503043954 18 234 11.3 14.5 0.00 0.00 0.00 32 1026.2
20260503042952 18 222 6.4 9.7 0.00 0.00 0.00 32 1026.1
20260503041952 18 229 8.0 11.3 0.00 0.00 0.00 32 1026.4
20260503040952 18 241 8.0 16.1 0.00 0.00 0.00 31 1026.2
20260503035952 19 249 8.0 9.7 0.00 0.00 0.00 31 1026.2
20260503034947 20 249 12.9 16.1 0.00 0.00 0.00 30 1026.0
20260503033947 20 265 11.3 17.7 0.00 0.00 0.00 30 1025.7
20260503032942 20 260 11.3 14.5 0.00 0.00 0.00 29 1025.9
20260503031937 20 235 6.4 12.9 0.00 0.00 0.00 29 1025.6
20260503030937 20 233 9.7 16.1 0.00 0.00 0.00 28 1025.1
20260503025937 20 292 12.9 20.9 0.00 0.00 0.00 28 1025.2
20260503024937 20 252 14.5 22.5 0.00 0.00 0.00 28 1025.1
20260503023937 20 271 11.3 17.7 0.00 0.00 0.00 28 1025.1
20260503022936 21 244 8.0 12.9 0.00 0.00 0.00 28 1024.8
20260503021933 21 263 11.3 16.1 0.00 0.00 0.00 28 1024.5